Regional Weather Roundup
Issued by NWS

Home | Current Version | Previous Version | Text Only | Print | Product List | Glossary On
Versions: 1 2 3 4 5 6 7 8 9 10 11 12 13 14 15 16 17 18 19 20 21 22 23 24 25 26 27 28 29 30 31 32 33 34 35 36 37 38 39 40 41 42 43 44 45 46 47 48 49 50
000
ASUS43 KBIS 312220
RWRND

NORTH DAKOTA REGIONAL WEATHER ROUNDUP
NATIONAL WEATHER SERVICE BISMARCK ND
400 PM CST SAT JAN 31 2015

NOTE: "FAIR" INDICATES FEW OR NO CLOUDS BELOW 12,000 FEET WITH NO
SIGNIFICANT WEATHER AND/OR OBSTRUCTIONS TO VISIBILITY.


NDZ001>003-009>011-017-312300-
NORTHWEST NORTH DAKOTA

CITY           SKY/WX    TMP DP  RH WIND       PRES   REMARKS
WILLISTON      LGT SNOW   6  -1  73 NE14      30.36R WCI -11
MINOT          LGT SNOW   1  -6  72 NE10      30.39R VSB 1   WCI -15
MINOT AFB      CLOUDY     0  -5  78 N13       30.41R WCI -18
$$

NDZ018>021-031>035-040>046-312300-
SOUTHWEST NORTH DAKOTA

CITY           SKY/WX    TMP DP  RH WIND       PRES   REMARKS
BISMARCK       CLOUDY    11   2  67 NE17      30.28S WCI  -6
DICKINSON      LGT SNOW  11   6  81 E16       30.14R WCI  -6
GARRISON         N/A      2  -3  80 NE12      30.33R WCI -15
HETTINGER ARPT LGT SNOW  14  11  87 E20G29    30.12R FOG     WCI  -3
$$

NDZ004>008-012>016-024-026-027-054-312300-
NORTHEAST NORTH DAKOTA

CITY           SKY/WX    TMP DP  RH WIND       PRES   REMARKS
GRAND FORKS    CLOUDY    -1 -10  65 N20       30.45R WCI -23
GRND FRKS AFB  PTSUNNY   -2 -12  62 N18       30.45R WCI -23
DEVILS LAKE    MOSUNNY   -2 -15  55 NE15      30.39R WCI -22
$$

NDZ022-023-025-028>030-036>039-047>053-312300-
SOUTHEAST NORTH DAKOTA

CITY           SKY/WX    TMP DP  RH WIND       PRES   REMARKS
FARGO          CLOUDY    10  -5  50 N22       30.34S WCI -10
JAMESTOWN      CLOUDY     7  -5  57 NE21      30.30R WCI -13
$$



USA.gov is the U.S. government's official web portal to all federal, state and local government web resources and services.